This is the latest recevied weather packets stored in our database for station/object K4CRS-13. If no packets are shown the sender has not sent any weather packets the latest 10 day(s).
| Time | Temp. | Humidity | Pressure | Rain* | Wind** | Luminosity | Snow |
|---|---|---|---|---|---|---|---|
| 1787494844 | 26.11° C | 80% | 1052.6 hPa | 0 mm | - | 432 W/m² | - |
| 1787494539 | 26.11° C | 80% | 1052.5 hPa | 0 mm | - | 417 W/m² | - |
| 1787494234 | 25.56° C | 80% | 1052.9 hPa | 0 mm | - | 400 W/m² | - |
| 1787493930 | 25.56° C | 83% | 1052.9 hPa | 0 mm | - | 385 W/m² | - |
| 1787493625 | 25° C | 84% | 1052.9 hPa | 0 mm | - | 335 W/m² | - |
| 1787493320 | 24.44° C | 84% | 1052.8 hPa | 0 mm | - | 352 W/m² | - |
| 1787493017 | 24.44° C | 87% | 1052.6 hPa | 0 mm | - | 337 W/m² | - |
| 1787492712 | 23.89° C | 88% | 1052.4 hPa | 0 mm | - | 319 W/m² | - |
| 1787492409 | 23.89° C | 91% | 1052.6 hPa | 0 mm | - | 299 W/m² | - |
| 1787492108 | 23.33° C | 94% | 1052.5 hPa | 0 mm | - | 287 W/m² | - |
| 1787491804 | 22.78° C | 97% | 1052.3 hPa | 0 mm | - | 269 W/m² | - |
| 1787491499 | 22.78° C | 99% | 1052.5 hPa | 0 mm | - | 243 W/m² | - |
| 1787491194 | 22.22° C | 99% | 1052.5 hPa | 0 mm | - | 211 W/m² | - |
| 1787490890 | 21.67° C | 99% | 1052.8 hPa | 0 mm | - | 183 W/m² | - |
| 1787490589 | 21.67° C | 99% | 1052.5 hPa | 0 mm | - | 158 W/m² | - |
| 1787490284 | 21.67° C | 99% | 1052.8 hPa | 0 mm | - | 141 W/m² | - |
| 1787489983 | 21.67° C | 99% | 1052.6 hPa | 0 mm | - | 120 W/m² | - |
| 1787489678 | 21.11° C | 99% | 1052.5 hPa | 0 mm | - | 100 W/m² | - |
| 1787489375 | 21.67° C | 99% | 1052.3 hPa | 0 mm | - | 88 W/m² | - |
| 1787489070 | 21.11° C | 99% | 1052.2 hPa | 0 mm | - | 84 W/m² | - |
| 1787488765 | 21.11° C | 99% | 1052.2 hPa | 0 mm | - | 82 W/m² | - |
| 1787488461 | 21.11° C | 99% | 1052.2 hPa | 0 mm | - | 80 W/m² | - |
| 1787488160 | 20.56° C | 99% | 1052.1 hPa | 0 mm | - | 77 W/m² | - |
| 1787487859 | 20.56° C | 99% | 1052 hPa | 0 mm | - | 72 W/m² | - |
| 1787487556 | 20.56° C | 99% | 1052.1 hPa | 0 mm | - | 63 W/m² | - |
* Rain latest hour (hover to see other rain measurements)
** Current wind speed in m/s (hover to see current wind gust speed)